Starlink 3048

operational
NORAD ID: 49148 Int'l Des: 2021-082 Owner: SPXS Country: US Constellation: starlink
LEOCIRCULAR

About Starlink 3048

Description loading...

Live Position

Loading 3D Globe...

Upcoming Passes

Altitude History

Altitude vs Time

uPlot chart will show altitude changes over time

Two-Line Element Set

1 49148U 21082U 25303.21149116 -.00000636 00000-0 -46528-4 0 9993
2 49148 69.9998 243.7921 0002718 272.0382 88.0466 14.97518354226917
Epoch: Oct 30, 2025 • Age: 12 hours

Current Status

Altitude 591.2 km
Velocity 7.56 km/s
Sub-Earth Point -48.12°S, 147.08°E
Launch Date Sep 14, 2021
Age 4.1 years
Type internet

Technical Details

Classification Payload
Mass 297.00 kg
Dry Mass 275.00 kg
Total Mass 297.00 kg
Length 0.20 m
Diameter 2.80 m
Span 9.00 m
Shape Box + pan
Manufacturer SPXS
Bus Type Starlink
Phase Status In Orbit
Owner/State SPXS/US

Large Constellations

Loading constellations...